FW9697 Weather Reports


time (UTC)temp
C
wind
direction
speed
KPH
gust
KPH
rain 1hr
cm
rain 24hr
cm
rain mn
cm
humidity
%
barometer
mb
20260507180638 -17 330 4.8 9.7 0.00 0.13 0.13 1004.8
20260507180136 -17 57 0.0 1.6 0.00 0.13 0.13 1004.9
20260507175631 -17 2 3.2 3.2 0.00 0.13 0.13 1005.2
20260507175129 -17 25 1.6 3.2 0.00 0.13 0.13 1005.1
20260507174626 -17 158 3.2 4.8 0.00 0.13 0.13 1005.0
20260507174124 -17 13 4.8 8.0 0.00 0.13 0.13 1004.9
20260507173621 -17 340 1.6 1.6 0.00 0.13 0.13 1004.7
20260507173118 -17 43 0.0 1.6 0.00 0.13 0.13 1004.9
20260507172614 -17 44 0.0 1.6 0.00 0.13 0.13 1004.9
20260507172112 -17 60 0.0 0.0 0.00 0.13 0.13 1004.9
20260507171606 -17 357 1.6 3.2 0.00 0.13 0.13 1005.1
20260507171104 -17 70 0.0 0.0 0.00 0.13 0.13 1005.0
20260507170601 -17 66 0.0 0.0 0.00 0.13 0.13 1005.1
20260507170058 -17 11 1.6 1.6 0.00 0.13 0.13 1005.2
20260507165553 -17 39 0.0 0.0 0.00 0.13 0.13 1005.3
20260507165050 -17 36 1.6 3.2 0.00 0.13 0.13 1005.5
20260507164546 -17 37 0.0 0.0 0.00 0.13 0.13 1005.4
20260507164043 -17 158 6.4 11.3 0.00 0.13 0.13 1005.6
20260507163540 -17 12 3.2 3.2 0.00 0.13 0.13 1005.5
20260507163033 -17 12 4.8 4.8 0.00 0.13 0.13 1005.7
20260507162532 -17 25 4.8 4.8 0.00 0.13 0.13 1005.6
20260507162030 -17 4 3.2 4.8 0.00 0.13 0.13 1005.6
20260507161526 -17 358 3.2 3.2 0.00 0.13 0.13 1005.7
20260507161023 -17 14 1.6 3.2 0.00 0.13 0.13 1005.5
20260507160519 -17 335 3.2 3.2 0.00 0.13 0.13 1005.7
20260507160016 -17 41 0.0 1.6 0.00 0.13 0.13 1006.1
20260507155511 -17 42 0.0 1.6 0.00 0.13 0.13 1005.7
20260507155008 -17 40 0.0 1.6 0.00 0.13 0.13 1005.9
20260507154505 -17 20 1.6 1.6 0.00 0.13 0.13 1005.9
20260507154002 -17 83 0.0 0.0 0.00 0.13 0.13 1005.9
20260507153459 -17 23 0.0 1.6 0.00 0.13 0.13 1005.9
20260507152954 -17 34 1.6 3.2 0.00 0.13 0.13 1005.8
20260507152451 -17 46 0.0 0.0 0.00 0.13 0.13 1005.8
20260507151947 -17 51 0.0 1.6 0.00 0.13 0.13 1006.0
20260507151444 -17 39 0.0 1.6 0.00 0.13 0.13 1005.8
20260507150940 -17 19 1.6 1.6 0.00 0.13 0.13 1005.9
20260507150437 -17 40 0.0 1.6 0.00 0.13 0.13 1006.0
20260507145934 -17 25 3.2 3.2 0.00 0.13 0.13 1006.3
20260507145429 -17 53 0.0 0.0 0.00 0.13 0.13 1006.2
20260507144927 -17 36 0.0 0.0 0.00 0.13 0.13 1006.0
20260507144424 -17 13 0.0 0.0 0.00 0.13 0.13 1006.4
20260507143921 -17 45 0.0 0.0 0.00 0.13 0.13 1006.3
20260507143418 -17 80 0.0 0.0 0.00 0.13 0.13 1006.4
20260507142914 -17 141 3.2 4.8 0.00 0.13 0.13 1006.4
20260507142410 -17 83 0.0 0.0 0.00 0.13 0.13 1006.5
20260507141908 -17 11 1.6 1.6 0.00 0.13 0.13 1006.5
20260507141404 -17 28 3.2 3.2 0.00 0.13 0.13 1006.3
20260507140900 -17 41 0.0 0.0 0.00 0.13 0.13 1006.4
20260507140357 -17 104 0.0 0.0 0.00 0.13 0.13 1006.3
20260507135855 -17 26 3.2 3.2 0.00 0.13 0.13 1006.4
20260507135351 -17 51 0.0 0.0 0.00 0.13 0.13 1006.3
20260507134849 -17 337 4.8 4.8 0.00 0.13 0.13 1006.5
20260507134345 -17 116 0.0 1.6 0.00 0.13 0.13 1006.3
20260507133841 -17 53 0.0 0.0 0.00 0.13 0.13 1006.4
20260507133337 -17 54 0.0 0.0 0.00 0.13 0.13 1006.5
20260507132836 -17 55 0.0 1.6 0.00 0.13 0.13 1006.3
20260507132331 -17 102 0.0 0.0 0.00 0.13 0.13 1006.5
20260507131829 -17 101 0.0 0.0 0.00 0.13 0.13 1006.5
20260507131325 -17 38 0.0 0.0 0.00 0.13 0.13 1006.5
20260507130822 -17 49 1.6 1.6 0.00 0.13 0.13 1006.8
20260507130319 -17 347 1.6 3.2 0.00 0.13 0.13 1006.8
20260507125818 -17 56 0.0 0.0 0.00 0.13 0.13 1006.5
20260507125315 -17 84 1.6 1.6 0.00 0.13 0.13 1006.5
20260507124813 -17 31 0.0 1.6 0.00 0.13 0.13 1006.7
20260507124309 -17 39 1.6 1.6 0.00 0.13 0.13 1006.7
20260507123808 -17 47 0.0 1.6 0.00 0.13 0.13 1006.7
20260507123305 -17 77 0.0 0.0 0.00 0.13 0.13 1006.7
20260507122800 -17 48 0.0 0.0 0.00 0.13 0.13 1006.8
20260507122256 -17 51 0.0 0.0 0.00 0.13 0.13 1006.8
20260507121752 -17 52 0.0 0.0 0.00 0.13 0.13 1006.9
20260507121248 -17 49 0.0 0.0 0.00 0.13 0.13 1006.7
20260507120744 -17 53 0.0 0.0 0.00 0.13 0.13 1007.0
20260507120241 -17 52 0.0 0.0 0.00 0.13 0.13 1006.6
20260507115737 -17 53 0.0 0.0 0.00 0.13 0.13 1006.8
20260507115233 -17 53 0.0 0.0 0.00 0.13 0.13 1006.6
20260507114729 -17 53 0.0 0.0 0.00 0.13 0.13 1006.8
20260507114227 -17 53 0.0 0.0 0.00 0.13 0.13 1006.7
20260507113724 -17 53 0.0 0.0 0.00 0.13 0.13 1006.8
20260507113220 -17 53 0.0 0.0 0.00 0.13 0.13 1006.6
20260507112718 -17 50 0.0 0.0 0.00 0.13 0.13 1006.4
20260507112215 -17 56 0.0 0.0 0.00 0.13 0.13 1006.7
20260507111712 -17 57 0.0 0.0 0.00 0.13 0.13 1006.6
20260507111209 -17 70 0.0 0.0 0.00 0.13 0.13 1006.5
20260507110705 -17 358 0.0 0.0 0.00 0.13 0.13 1006.5
20260507110202 -17 67 0.0 0.0 0.00 0.13 0.13 1006.3
20260507105659 -17 67 0.0 0.0 0.00 0.13 0.13 1006.3
20260507105155 -17 67 0.0 0.0 0.00 0.13 0.13 1006.3
20260507104652 -17 89 0.0 0.0 0.00 0.13 0.13 1006.5
20260507104148 -17 75 0.0 0.0 0.00 0.13 0.13 1006.5
20260507103644 -17 75 0.0 0.0 0.00 0.13 0.13 1006.5
20260507103141 -17 100 0.0 0.0 0.00 0.13 0.13 1006.7
20260507102638 -17 71 0.0 0.0 0.00 0.13 0.13 1006.4
20260507102134 -17 71 0.0 0.0 0.00 0.13 0.13 1006.2
20260507101630 -17 70 0.0 0.0 0.00 0.13 0.13 1006.2
20260507101126 -17 68 0.0 0.0 0.13 0.13 0.13 1005.9
20260507100624 -17 57 0.0 0.0 0.13 0.13 0.13 1005.9
20260507100122 -17 58 0.0 0.0 0.00 0.10 0.10 1005.6
20260507095620 -17 50 0.0 0.0 0.00 0.10 0.10 1005.9
20260507095116 -17 51 0.0 0.0 0.00 0.10 0.10 1005.8
20260507094612 -17 51 0.0 0.0 0.00 0.10 0.10 1005.8
20260507094109 -17 50 0.0 0.0 0.00 0.10 0.10 1005.8
20260507093606 -17 50 0.0 0.0 0.00 0.10 0.10 1006.0
20260507093105 -17 50 0.0 0.0 0.18 0.10 0.10 1005.6
20260507092601 -17 49 0.0 0.0 0.18 0.10 0.10 1005.9
20260507092058 -17 57 0.0 0.0 0.00 0.08 0.08 1006.1
20260507091555 -17 60 0.0 0.0 0.13 0.08 0.08 1005.8
20260507091051 -17 50 0.0 0.0 0.13 0.08 0.08 1005.9
20260507090546 -17 46 0.0 0.0 0.00 0.05 0.05 1005.9
20260507090044 -17 49 0.0 0.0 0.00 0.05 0.05 1006.2
20260507085541 -17 49 0.0 0.0 0.18 0.05 0.05 1006.0
20260507085037 -17 49 0.0 0.0 0.18 0.05 0.05 1006.4
20260507084534 -17 48 0.0 0.0 0.00 0.03 0.03 1006.0
20260507084031 -17 47 0.0 0.0 0.00 0.03 0.03 1006.1
20260507083527 -17 51 0.0 0.0 0.00 0.03 0.03 1006.2
20260507083025 -17 53 0.0 0.0 0.00 0.03 0.03 1005.9
20260507082521 -17 53 0.0 0.0 0.00 0.03 0.03 1006.1
20260507082017 -17 53 0.0 0.0 0.00 0.03 0.03 1006.0
20260507081513 -17 62 0.0 0.0 0.00 0.03 0.03 1005.9
20260507081010 -17 44 0.0 0.0 0.00 0.03 0.03 1005.7
20260507080506 -17 48 0.0 0.0 0.00 0.03 0.03 1005.5
20260507080002 -17 46 0.0 0.0 0.00 0.03 0.03 1005.9
20260507075458 -17 43 0.0 0.0 0.00 0.03 0.03 1005.9
20260507074954 -17 44 0.0 0.0 0.00 0.03 0.03 1005.9
20260507074451 -17 23 0.0 1.6 0.00 0.03 0.03 1005.9
20260507073950 -17 45 0.0 0.0 0.13 0.03 0.03 1006.0
20260507073445 -17 45 0.0 0.0 0.13 0.03 0.03 1005.5
20260507072942 -17 42 0.0 0.0 0.00 0.00 0.00 1005.6
20260507072440 -17 38 0.0 1.6 0.00 0.00 0.00 1005.9
20260507071937 -17 36 0.0 0.0 0.00 0.00 0.00 1005.7
20260507071434 -17 41 0.0 0.0 0.00 0.00 0.00 1005.1
20260507070930 -17 38 0.0 0.0 0.00 0.00 0.00 1005.0
20260507070428 -17 44 0.0 1.6 0.00 0.00 0.00 1005.2
20260507065924 -17 45 0.0 0.0 0.00 0.00 0.00 1005.3
20260507065421 -17 44 0.0 0.0 0.00 0.00 0.00 1005.0
20260507064913 -17 40 0.0 0.0 0.00 0.00 0.00 1005.2
20260507064411 -17 44 0.0 0.0 0.00 0.00 0.00 1005.2
20260507063909 -17 46 0.0 0.0 0.00 0.00 0.00 1005.2
20260507063406 -17 44 0.0 1.6 0.00 0.00 0.00 1004.8
20260507062902 -17 3 1.6 3.2 0.00 0.00 0.00 1005.2
20260507062359 -17 45 0.0 0.0 0.00 0.00 0.00 1005.2
20260507061857 -17 25 0.0 1.6 0.00 0.00 0.00 1005.2
20260507061355 -17 37 0.0 0.0 0.00 0.00 0.00 1005.4
20260507060853 -17 38 0.0 0.0 0.00 0.00 0.00 1005.1
20260507060349 -17 32 0.0 0.0 0.00 0.00 0.00 1004.9
20260507055846 -17 52 0.0 0.0 0.00 0.00 0.00 1005.1
20260507055341 -17 35 0.0 0.0 0.00 0.00 0.00 1005.3
20260507054839 -17 36 0.0 0.0 0.00 0.00 0.00 1005.2
20260507054334 -17 37 0.0 0.0 0.00 0.00 0.00 1005.3
20260507053832 -17 70 0.0 0.0 0.00 0.00 0.00 1005.5
20260507053329 -17 49 0.0 0.0 0.00 0.00 0.00 1005.4
20260507052828 -17 48 0.0 0.0 0.00 0.00 0.00 1005.4
20260507052324 -17 45 0.0 0.0 0.00 0.00 0.00 1005.5
20260507051822 -17 48 0.0 0.0 0.00 0.00 0.00 1005.4
20260507051320 -17 48 0.0 0.0 0.00 0.00 0.00 1005.4
20260507050816 -17 48 0.0 0.0 0.00 0.00 0.00 1005.2
20260507050313 -17 35 0.0 0.0 0.00 0.00 0.00 1005.1
20260507045810 -17 47 0.0 0.0 0.00 0.00 0.00 1005.2
20260507045307 -17 39 0.0 0.0 0.00 0.00 0.00 1005.1
20260507044803 -17 42 0.0 0.0 0.00 0.00 0.00 1005.4
20260507044300 -17 54 0.0 0.0 0.00 0.00 0.00 1005.4
20260507043756 -17 43 0.0 0.0 0.00 0.00 0.00 1005.5
20260507043253 -17 51 0.0 0.0 0.00 0.00 0.00 1005.5
20260507042749 -17 51 0.0 0.0 0.00 0.00 0.00 1005.2
20260507042244 -17 51 0.0 0.0 0.00 0.00 0.00 1005.2
20260507041742 -17 54 0.0 0.0 0.00 0.00 0.00 1005.2
20260507041238 -17 59 0.0 0.0 0.00 0.00 0.00 1005.4
20260507040735 -17 61 0.0 0.0 0.00 0.00 0.00 1005.0
20260507040231 -17 62 0.0 0.0 0.00 0.00 0.00 1005.2
20260507035727 -17 46 0.0 0.0 0.00 0.10 0.10 1005.3
20260507035223 -17 58 0.0 0.0 0.00 0.10 0.10 1005.5
20260507034721 -17 46 0.0 0.0 0.00 0.10 0.10 1005.3
20260507034217 -17 49 0.0 0.0 0.00 0.10 0.10 1005.3
20260507033716 -17 43 0.0 0.0 0.00 0.10 0.10 1005.1
20260507033213 -17 56 0.0 0.0 0.00 0.10 0.10 1005.3
20260507032710 -17 47 0.0 0.0 0.00 0.10 0.10 1004.9
20260507032206 -17 70 0.0 0.0 0.00 0.10 0.10 1004.8
20260507031703 -17 49 0.0 0.0 0.00 0.10 0.10 1004.9
20260507031159 -17 65 0.0 0.0 0.18 0.10 0.10 1004.6
20260507030656 -17 70 0.0 0.0 0.18 0.10 0.10 1004.5
20260507030154 -17 71 0.0 0.0 0.00 0.08 0.08 1004.5
20260507025651 -17 77 0.0 0.0 0.00 0.08 0.08 1004.5
20260507025148 -17 68 0.0 0.0 0.00 0.08 0.08 1004.3
20260507024646 -17 156 0.0 0.0 0.00 0.08 0.08 1004.5
20260507024143 -17 142 3.2 3.2 0.00 0.08 0.08 1004.2
20260507023638 -17 61 0.0 0.0 0.00 0.08 0.08 1004.3
20260507023136 -17 80 0.0 0.0 0.00 0.08 0.08 1004.5
20260507022633 -17 102 0.0 0.0 0.00 0.08 0.08 1004.6
20260507022128 -17 71 0.0 0.0 0.00 0.08 0.08 1004.5
20260507021625 -17 47 0.0 0.0 0.00 0.08 0.08 1004.5
20260507021120 -17 144 1.6 3.2 0.00 0.08 0.08 1004.4
20260507020619 -17 88 0.0 0.0 0.00 0.08 0.08 1004.4
20260507020115 -17 117 0.0 0.0 0.00 0.08 0.08 1004.5
20260507015614 -17 82 0.0 0.0 0.00 0.08 0.08 1004.5
20260507015111 -17 58 1.6 3.2 0.00 0.08 0.08 1004.5
20260507014607 -17 85 0.0 0.0 0.00 0.08 0.08 1004.4
20260507014103 -17 77 0.0 0.0 0.00 0.08 0.08 1004.4
20260507013600 -17 111 0.0 1.6 0.00 0.08 0.08 1004.3
20260507013057 -17 153 1.6 1.6 0.00 0.08 0.08 1004.6
20260507012554 -17 75 0.0 0.0 0.00 0.08 0.08 1004.5
20260507012050 -17 202 1.6 3.2 0.00 0.08 0.08 1004.6
20260507011548 -17 148 1.6 3.2 0.00 0.08 0.08 1004.7
20260507011044 -17 60 0.0 0.0 0.00 0.08 0.08 1004.7
20260507010539 -17 113 1.6 1.6 0.00 0.08 0.08 1004.8
20260507010035 -17 227 6.4 9.7 0.00 0.08 0.08 1004.7
20260507005533 -17 104 0.0 0.0 0.00 0.08 0.08 1004.8
20260507005029 -17 249 1.6 3.2 0.00 0.08 0.08 1004.6
20260507004526 -17 86 0.0 0.0 0.00 0.08 0.08 1004.5
20260507004023 -17 125 4.8 4.8 0.00 0.08 0.08 1004.9
20260507003519 -17 90 0.0 0.0 0.00 0.08 0.08 1004.7
20260507003014 -17 154 3.2 3.2 0.00 0.08 0.08 1004.7
20260507002511 -17 134 1.6 3.2 0.00 0.08 0.08 1004.8
20260507002007 -17 109 0.0 1.6 0.00 0.08 0.08 1004.6
20260507001503 -17 127 1.6 3.2 0.00 0.08 0.08 1004.7
20260507001001 -17 31 3.2 3.2 0.00 0.08 0.08 1004.6
20260507000457 -17 109 0.0 0.0 0.00 0.08 0.08 1004.4
20260506235952 -17 227 3.2 4.8 0.00 0.08 0.08 1004.3
20260506235450 -17 115 1.6 1.6 0.00 0.08 0.08 1004.4
20260506234946 -17 117 0.0 0.0 0.00 0.08 0.08 1004.4
20260506234443 -17 169 1.6 3.2 0.00 0.08 0.08 1004.1
20260506233941 -17 69 0.0 0.0 0.00 0.08 0.08 1004.3
20260506233437 -17 74 0.0 0.0 0.00 0.08 0.08 1004.4
20260506232934 -17 79 0.0 0.0 0.13 0.08 0.08 1004.4
20260506232430 -17 242 0.0 0.0 0.13 0.08 0.08 1004.5
20260506231926 -17 110 0.0 0.0 0.00 0.05 0.05 1004.1
20260506231423 -17 28 0.0 0.0 0.00 0.05 0.05 1004.4
20260506230920 -17 149 1.6 1.6 0.18 0.05 0.05 1004.2
20260506230417 -17 49 0.0 0.0 0.18 0.05 0.05 1004.4
20260506225914 -17 87 1.6 3.2 0.00 0.03 0.03 1004.3
20260506225411 -17 23 0.0 0.0 0.00 0.03 0.03 1004.3
20260506224908 -17 241 0.0 1.6 0.00 0.03 0.03 1004.3
20260506224405 -17 76 0.0 0.0 0.00 0.03 0.03 1004.4
20260506223901 -17 17 0.0 1.6 0.00 0.03 0.03 1004.6
20260506223356 -17 40 0.0 0.0 0.13 0.03 0.03 1004.5
20260506222854 -17 127 0.0 1.6 0.13 0.03 0.03 1004.7
20260506222350 -17 233 4.8 8.0 0.00 0.00 0.00 1004.4
20260506221848 -17 176 0.0 0.0 0.00 0.00 0.00 1004.6
20260506221345 -17 184 0.0 0.0 0.00 0.00 0.00 1004.5
20260506220842 -17 115 0.0 0.0 0.00 0.00 0.00 1004.8
20260506220338 -17 69 0.0 0.0 0.00 0.00 0.00 1004.8
20260506215835 -17 173 4.8 9.7 0.00 0.00 0.00 1004.9
20260506215330 -17 173 4.8 9.7 0.00 0.00 0.00 1004.9
20260506214826 -17 104 0.0 0.0 0.00 0.18 0.18 1004.7
20260506214323 -17 81 1.6 1.6 0.18 0.18 0.18 1005.0
20260506213822 -17 107 0.0 0.0 0.18 0.18 0.18 1004.9
20260506213319 -17 178 3.2 3.2 0.00 0.15 0.15 1004.7
20260506212816 -17 13 3.2 4.8 0.00 0.15 0.15 1005.1
20260506212311 -17 30 4.8 4.8 0.00 0.15 0.15 1004.8
20260506211807 -17 250 3.2 4.8 0.00 0.15 0.15 1004.9
20260506211303 -17 71 0.0 0.0 0.00 0.15 0.15 1004.9
20260506210801 -17 65 0.0 0.0 0.00 0.15 0.15 1005.1
20260506210257 -17 63 1.6 3.2 0.00 0.15 0.15 1005.1
20260506205754 -17 49 0.0 0.0 0.00 0.15 0.15 1005.1
20260506205249 -17 136 1.6 1.6 0.00 0.15 0.15 1005.3
20260506204746 -17 135 3.2 4.8 0.00 0.15 0.15 1005.4
20260506204245 -17 133 1.6 1.6 0.00 0.15 0.15 1005.1
20260506203742 -17 79 0.0 0.0 0.00 0.15 0.15 1005.3
20260506203239 -17 55 0.0 0.0 0.00 0.15 0.15 1005.3
20260506202736 -17 13 3.2 3.2 0.00 0.15 0.15 1005.3
20260506202233 -17 150 0.0 1.6 0.13 0.15 0.15 1005.4
20260506201730 -17 61 0.0 0.0 0.13 0.15 0.15 1005.2
20260506201226 -17 186 4.8 8.0 0.00 0.13 0.13 1005.2
20260506200723 -17 357 1.6 1.6 0.00 0.13 0.13 1005.2
20260506200220 -17 58 1.6 1.6 0.00 0.13 0.13 1005.3
20260506195716 -17 84 0.0 0.0 0.00 0.13 0.13 1005.3
20260506195212 -17 73 0.0 0.0 0.00 0.13 0.13 1005.2
20260506194705 -17 66 1.6 1.6 0.00 0.13 0.13 1005.1
20260506194201 -17 178 1.6 1.6 0.18 0.13 0.13 1005.1
20260506193658 -17 204 1.6 3.2 0.30 0.13 0.13 1005.1
20260506193155 -17 145 3.2 3.2 0.13 0.10 0.10 1005.2
20260506192652 -17 82 1.6 3.2 0.18 0.08 0.08 1005.5
20260506192148 -17 48 0.0 1.6 0.18 0.08 0.08 1005.6
20260506191646 -17 154 1.6 1.6 0.13 0.05 0.05 1005.5
20260506191141 -17 95 1.6 1.6 0.13 0.05 0.05 1005.4
20260506190639 -17 105 1.6 1.6 0.18 0.03 0.03 1005.3
20260506190135 -17 52 0.0 1.6 0.18 0.03 0.03 1005.4
20260506185632 -17 119 1.6 1.6 0.00 0.00 0.00 1005.4
20260506185128 -17 83 1.6 3.2 0.00 0.00 0.00 1005.3
20260506184626 -17 82 3.2 4.8 0.00 0.00 0.00 1005.6
20260506184123 -17 85 0.0 0.0 0.00 0.00 0.00 1005.7
20260506183620 -17 54 0.0 0.0 0.00 0.00 0.00 1005.7
20260506183116 -17 171 3.2 4.8 0.00 0.00 0.00 1005.6
20260506182614 -17 134 3.2 3.2 0.00 0.00 0.00 1005.8
20260506182110 -17 17 3.2 3.2 0.00 0.00 0.00 1005.8
20260506181608 -17 134 1.6 1.6 0.00 0.00 0.00 1005.5
20260506181105 -17 208 3.2 8.0 0.00 0.00 0.00 1005.6